[[{"header":{"parameterUnit":"m.s-1","parameterCategory":1,"la1":30.2991,"la2":30.254,"lo1":-89.0895,"lo2":-89.0444,"dy":0.0017,"dx":0.0017,"nx":28,"ny":28,"refTime":"2024-03-16T09:00:00:Z","depth":0,"parameterNumber":2,"parameterNumberName":"U-component_of_WINDS"},"data":[0,0,0,0,0,0,0,0,0,0,0,0,0,0,0,0,0,0,0,0,0,0,0,0,0,0,0,0,0,0,0,0,0,0,0,0,0,0,0,0,0,0,0,0,0,0,0,0,0,0,0,0,0,0,0,0,0,0,-0.8029,-0.8028,0,-0.7981,-0.798,-0.7979,-0.7964,-0.7965,-0.7965,-0.7965,-0.7917,-0.7916,-0.7915,0,0,0,0,0,0,0,0,0,0,0,0,0,-0.8111,-0.8109,-0.8029,-0.8028,-0.8028,-0.7981,-0.798,-0.7979,-0.7964,-0.7965,-0.7965,-0.7965,-0.7918,-0.7916,-0.7914,0,0,0,0,0,0,0,0,0,0,0,0,0,-0.807,-0.8109,-0.8029,-0.8014,-0.8013,-0.7981,-0.798,-0.7979,-0.7964,-0.7965,-0.7965,-0.7965,-0.7919,-0.7916,-0.7914,-0.7894,0,0,-0.7907,-0.7906,0,0,0,0,0,0,0,0,-0.8072,-0.8067,-0.8017,-0.8015,-0.8013,-0.7979,-0.7991,-0.7951,-0.7964,-0.7983,-0.7965,-0.7965,-0.7938,-0.7934,-0.7924,-0.7892,-0.789,-0.7907,-0.7906,-0.7905,-0.7904,0,0,0,0,0,0,0,-0.8075,-0.8069,-0.801,-0.8016,-0.8014,-0.8011,-0.8006,-0.7984,-0.7959,-0.7981,-0.798,-0.7974,-0.7937,-0.7926,-0.7923,-0.7889,-0.7907,-0.7905,-0.7904,-0.7903,-0.7838,-0.7838,0,0,0,0,0,0,-0.808,-0.8072,-0.8011,-0.8008,-0.8044,-0.8009,-0.8003,-0.799,-0.7959,-0.7955,-0.7974,-0.7974,-0.793,-0.7926,-0.7921,-0.7896,-0.7905,-0.7903,-0.7902,-0.7838,-0.7838,-0.7837,0,0,0,0,0,0,-0.8082,-0.8075,-0.8013,-0.804,-0.8031,-0.8008,-0.7992,-0.7988,-0.7978,-0.7954,-0.795,-0.7968,-0.793,-0.7924,-0.7901,-0.7894,-0.7902,-0.79,-0.7839,-0.7838,-0.7838,-0.7844,0,0,0,0,0,0,-0.8084,-0.8076,-0.8067,-0.8039,-0.803,-0.7993,-0.7992,-0.7987,-0.7974,-0.7973,-0.7947,-0.7943,-0.793,-0.7904,-0.7899,-0.7891,-0.7898,-0.7839,-0.7838,-0.7838,-0.7845,-0.7844,-0.7844,0,0,0,0,0,-0.8087,-0.8071,-0.8067,-0.806,-0.8019,-0.7993,-0.7987,-0.7972,-0.7973,-0.7965,-0.795,-0.7944,-0.7896,-0.7902,-0.7895,-0.7887,-0.784,-0.7839,-0.7838,-0.7845,-0.7844,-0.7844,0,0,0,0,0,0,-0.8099,-0.8067,-0.8062,-0.8036,-0.8017,-0.799,-0.7979,-0.7972,-0.7953,-0.7953,-0.7935,-0.793,-0.7907,-0.7895,-0.7903,-0.7866,-0.7867,-0.7865,-0.7875,-0.7874,-0.7874,-0.7877,-0.7896,0,0,0,0,0,-0.8099,-0.808,-0.8053,-0.8033,-0.8024,-0.8003,-0.7991,-0.7981,-0.7961,-0.7953,-0.7936,-0.7917,-0.7898,-0.7885,-0.7866,-0.7843,-0.7837,-0.7834,-0.7834,-0.7833,-0.7832,-0.7819,-0.7817,-0.7834,-0.7834,-0.7834,0,0,-0.8098,-0.8078,-0.8067,-0.8035,-0.8019,-0.8,-0.7996,-0.7976,-0.7962,-0.795,-0.7927,-0.7913,-0.7891,-0.7868,-0.7857,-0.7857,-0.7826,-0.7832,-0.7832,-0.783,-0.7818,-0.7816,-0.7815,-0.7834,-0.7834,-0.7834,0,0,-0.8087,-0.807,-0.8051,-0.8035,-0.8011,-0.7997,-0.7993,-0.7967,-0.7957,-0.7933,-0.7924,-0.7907,-0.7874,-0.7859,-0.7847,-0.7831,-0.7824,-0.7825,-0.7822,-0.781,-0.7809,-0.7807,-0.7802,-0.78,-0.7823,-0.7823,-0.7823,0,-0.8089,-0.8059,-0.8043,-0.8023,-0.801,-0.7997,-0.7979,-0.7964,-0.7935,-0.7927,-0.7927,-0.7885,-0.787,-0.7843,-0.7839,-0.7829,-0.7824,-0.7828,-0.781,-0.7809,-0.7807,-0.7802,-0.78,-0.7824,-0.7824,-0.7823,-0.7823,0,-0.8063,-0.8043,-0.8031,-0.8003,-0.7988,-0.7969,-0.7951,-0.7938,-0.7929,-0.7916,-0.7892,-0.7873,-0.785,-0.7843,-0.7835,-0.7815,-0.7816,-0.7813,-0.7814,-0.7806,-0.7801,-0.7798,-0.7824,-0.7824,-0.7824,-0.7824,0,0,-0.8058,-0.8021,-0.8017,-0.8004,-0.7976,-0.7961,-0.7942,-0.7919,-0.7908,-0.7889,-0.7873,-0.7846,-0.7843,-0.783,-0.7819,-0.7809,-0.7797,-0.7808,-0.7807,-0.7807,-0.7775,-0.7777,-0.7775,-0.7793,-0.7793,-0.7792,-0.7777,0,-0.8044,-0.8008,-0.7993,-0.7965,-0.7947,-0.7935,-0.7918,-0.79,-0.7887,-0.787,-0.7857,-0.7837,-0.7835,-0.7827,-0.7816,-0.7801,-0.7791,-0.7802,-0.7779,-0.7778,-0.7785,-0.7772,-0.7774,-0.7761,-0.7775,-0.7775,-0.7774,0,-0.8022,-0.8002,-0.7972,-0.7946,-0.7938,-0.7923,-0.7901,-0.7885,-0.7864,-0.7856,-0.7841,-0.7831,-0.7812,-0.7814,-0.7787,-0.7795,-0.7785,-0.7776,-0.7776,-0.7773,-0.7776,-0.777,-0.7756,-0.7754,-0.7771,-0.7771,-0.7771,0,-0.8021,-0.7987,-0.7964,-0.7954,-0.7924,-0.7914,-0.7901,-0.7881,-0.7868,-0.7849,-0.7841,-0.782,-0.7809,-0.7793,-0.7778,-0.7781,-0.7753,-0.7754,-0.7746,-0.7747,-0.7741,-0.7741,-0.7726,-0.7734,-0.7734,-0.7734,-0.7734,0,-0.8007,-0.7989,-0.7964,-0.795,-0.793,-0.7913,-0.7894,-0.7881,-0.7863,-0.7847,-0.7836,-0.7821,-0.7803,-0.7786,-0.7775,-0.7754,-0.7749,-0.7742,-0.774,-0.7743,-0.7744,-0.7737,-0.7737,-0.7733,-0.7734,-0.7734,-0.7734,0,-0.8003,-0.7985,-0.796,-0.7934,-0.7927,-0.7913,-0.7891,-0.7878,-0.7865,-0.7845,-0.7839,-0.7819,-0.7798,-0.7782,-0.7756,-0.7748,-0.7727,-0.7724,-0.7734,-0.7733,-0.7726,-0.7727,-0.7705,-0.7701,-0.7712,-0.7712,-0.7711,0,-0.7995,-0.7981,-0.7953,-0.7941,-0.7928,-0.7909,-0.7896,-0.7879,-0.7866,-0.7842,-0.7832,-0.781,-0.7793,-0.7761,-0.7744,-0.7724,-0.7721,-0.7714,-0.7718,-0.7722,-0.7721,-0.7722,-0.7721,-0.7714,-0.7714,-0.7714,-0.7714,0,-0.7982,-0.7974,-0.7955,-0.7933,-0.7917,-0.7899,-0.7881,-0.7872,-0.7853,-0.7839,-0.7817,-0.7804,-0.7777,-0.7756,-0.7735,-0.7722,-0.7715,-0.7713,-0.771,-0.7714,-0.7721,-0.7717,-0.7733,-0.7714,-0.7714,-0.7714,-0.7714,-0.7714,-0.7976,-0.7963,-0.7941,-0.7921,-0.7905,-0.7889,-0.7875,-0.786,-0.7842,-0.7818,-0.7809,-0.7788,-0.7768,-0.7738,-0.7726,-0.7709,-0.7709,-0.7705,-0.7704,-0.7703,-0.7703,-0.7723,-0.7705,-0.7705,-0.7705,-0.7705,-0.7705,0,-0.7963,-0.7949,-0.793,-0.7904,-0.7888,-0.7882,-0.7862,-0.7849,-0.783,-0.7812,-0.7795,-0.7771,-0.7751,-0.7733,-0.7712,-0.7702,-0.7699,-0.7698,-0.7698,-0.7695,-0.7705,-0.771,-0.7701,-0.7701,-0.7701,-0.7701,-0.7701,-0.7701,-0.7955,-0.7933,-0.7922,-0.7892,-0.7878,-0.7856,-0.7846,-0.783,-0.7816,-0.779,-0.7773,-0.7761,-0.7743,-0.7721,-0.7702,-0.7698,-0.7691,-0.7691,-0.7685,-0.7694,-0.7695,-0.7695,-0.77,-0.7689,-0.7689,-0.7677,-0.7677,-0.7677]},{"header":{"parameterUnit":"m.s-1","parameterCategory":1,"la1":30.2991,"la2":30.254,"lo1":-89.0895,"lo2":-89.0444,"dy":0.0017,"dx":0.0017,"nx":28,"ny":28,"refTime":"2024-03-16T09:00:00:Z","depth":0,"parameterNumber":3,"parameterNumberName":"V-component_of_WINDS"},"data":[0,0,0,0,0,0,0,0,0,0,0,0,0,0,0,0,0,0,0,0,0,0,0,0,0,0,0,0,0,0,0,0,0,0,0,0,0,0,0,0,0,0,0,0,0,0,0,0,0,0,0,0,0,0,0,0,0,0,-3.6532,-3.6532,0,-3.6577,-3.6578,-3.6578,-3.6569,-3.6568,-3.6567,-3.6566,-3.6608,-3.661,-3.6612,0,0,0,0,0,0,0,0,0,0,0,0,0,-3.6433,-3.6435,-3.6532,-3.6532,-3.6533,-3.6577,-3.6578,-3.6578,-3.6569,-3.6568,-3.6567,-3.6566,-3.6608,-3.661,-3.6612,0,0,0,0,0,0,0,0,0,0,0,0,0,-3.6477,-3.6436,-3.6532,-3.6534,-3.6534,-3.6577,-3.6578,-3.6578,-3.6569,-3.6568,-3.6567,-3.6565,-3.6607,-3.661,-3.6612,-3.6654,0,0,-3.6621,-3.6622,0,0,0,0,0,0,0,0,-3.6474,-3.648,-3.6533,-3.6534,-3.6535,-3.6566,-3.6558,-3.6604,-3.6569,-3.6556,-3.6566,-3.6565,-3.6595,-3.6599,-3.661,-3.6656,-3.6658,-3.6621,-3.6623,-3.6624,-3.6625,0,0,0,0,0,0,0,-3.6471,-3.6478,-3.655,-3.6534,-3.6535,-3.6531,-3.6536,-3.6567,-3.6581,-3.6557,-3.6556,-3.6562,-3.6595,-3.6607,-3.6611,-3.6659,-3.6621,-3.6624,-3.6625,-3.6626,-3.6741,-3.6742,0,0,0,0,0,0,-3.6468,-3.6476,-3.6548,-3.6551,-3.6501,-3.6534,-3.6539,-3.6557,-3.6581,-3.6584,-3.6563,-3.6561,-3.6603,-3.6607,-3.6612,-3.6662,-3.6624,-3.6627,-3.6628,-3.674,-3.6741,-3.6743,0,0,0,0,0,0,-3.6466,-3.6475,-3.6546,-3.6513,-3.6522,-3.6537,-3.6557,-3.6559,-3.6571,-3.6586,-3.6588,-3.6573,-3.6602,-3.6608,-3.6644,-3.6663,-3.6628,-3.6631,-3.6738,-3.674,-3.6742,-3.6763,0,0,0,0,0,0,-3.6463,-3.6474,-3.6491,-3.6514,-3.6524,-3.6579,-3.6558,-3.656,-3.6576,-3.6574,-3.6596,-3.6598,-3.6601,-3.664,-3.6647,-3.6667,-3.6633,-3.6736,-3.6739,-3.6741,-3.676,-3.6765,-3.6769,0,0,0,0,0,-3.646,-3.6494,-3.6492,-3.6501,-3.6546,-3.658,-3.6586,-3.659,-3.6578,-3.6594,-3.6604,-3.6597,-3.666,-3.6644,-3.6651,-3.6672,-3.6735,-3.6738,-3.6741,-3.6758,-3.6764,-3.6769,0,0,0,0,0,0,-3.6472,-3.6497,-3.6495,-3.6538,-3.6557,-3.6578,-3.6599,-3.6597,-3.6618,-3.6616,-3.6619,-3.6624,-3.6661,-3.667,-3.6651,-3.6714,-3.6696,-3.67,-3.6706,-3.6712,-3.6716,-3.6713,-3.6635,0,0,0,0,0,-3.648,-3.6507,-3.6527,-3.6563,-3.6573,-3.6585,-3.66,-3.6602,-3.6621,-3.6628,-3.6641,-3.6659,-3.6682,-3.6698,-3.672,-3.6762,-3.6766,-3.678,-3.6785,-3.6788,-3.6792,-3.6814,-3.682,-3.6753,-3.6753,-3.6753,0,0,-3.6496,-3.6513,-3.653,-3.6566,-3.6581,-3.6607,-3.6591,-3.662,-3.6639,-3.6632,-3.6667,-3.6677,-3.6697,-3.6736,-3.6753,-3.6745,-3.6812,-3.6792,-3.6795,-3.6797,-3.6818,-3.6824,-3.683,-3.6755,-3.6754,-3.6754,0,0,-3.6539,-3.6555,-3.6587,-3.6603,-3.6626,-3.6634,-3.6641,-3.6663,-3.667,-3.6705,-3.67,-3.6723,-3.6764,-3.6778,-3.679,-3.6839,-3.6833,-3.6846,-3.6869,-3.6891,-3.6896,-3.6901,-3.6917,-3.6923,-3.685,-3.685,-3.685,0,-3.6555,-3.6597,-3.6603,-3.6633,-3.6648,-3.6645,-3.6676,-3.669,-3.6719,-3.6729,-3.672,-3.6771,-3.6784,-3.6826,-3.6838,-3.6849,-3.6856,-3.6843,-3.6895,-3.69,-3.6904,-3.692,-3.6926,-3.6852,-3.6851,-3.6851,-3.6851,0,-3.6615,-3.6644,-3.6666,-3.6696,-3.6714,-3.6744,-3.6754,-3.6771,-3.6772,-3.678,-3.6816,-3.6832,-3.6857,-3.6868,-3.6868,-3.6909,-3.6903,-3.6894,-3.6876,-3.6912,-3.6926,-3.6932,-3.6853,-3.6853,-3.6853,-3.6852,0,0,-3.6666,-3.67,-3.6708,-3.6721,-3.6747,-3.6768,-3.6798,-3.6824,-3.6839,-3.6859,-3.6883,-3.6918,-3.691,-3.6924,-3.6926,-3.6945,-3.6981,-3.6934,-3.6934,-3.6941,-3.7026,-3.7032,-3.7039,-3.6978,-3.6979,-3.698,-3.7024,0,-3.671,-3.6764,-3.6771,-3.6818,-3.6844,-3.6841,-3.6867,-3.6884,-3.6893,-3.6915,-3.6924,-3.6948,-3.6936,-3.6945,-3.6964,-3.6973,-3.6998,-3.697,-3.6998,-3.6999,-3.6993,-3.7047,-3.7053,-3.7094,-3.703,-3.7031,-3.7032,0,-3.6769,-3.6793,-3.6843,-3.6865,-3.6876,-3.6899,-3.6924,-3.6946,-3.6965,-3.697,-3.6986,-3.6986,-3.7015,-3.6996,-3.7035,-3.7016,-3.7028,-3.7034,-3.7036,-3.7038,-3.7017,-3.7049,-3.7107,-3.7113,-3.7041,-3.704,-3.704,0,-3.68,-3.6844,-3.688,-3.6891,-3.6918,-3.6934,-3.6946,-3.6965,-3.698,-3.7001,-3.7011,-3.7035,-3.7047,-3.7065,-3.7071,-3.7057,-3.7109,-3.7091,-3.7112,-3.7112,-3.7123,-3.7122,-3.7183,-3.7132,-3.7132,-3.7132,-3.7132,0,-3.6848,-3.6879,-3.6894,-3.6916,-3.6949,-3.6956,-3.6989,-3.7,-3.7016,-3.7039,-3.7038,-3.7059,-3.7065,-3.7087,-3.7091,-3.7122,-3.7128,-3.7131,-3.7132,-3.7131,-3.7131,-3.7138,-3.7135,-3.7134,-3.7133,-3.7133,-3.7133,0,-3.6888,-3.69,-3.6938,-3.6961,-3.6967,-3.6991,-3.701,-3.703,-3.7039,-3.7067,-3.7074,-3.7087,-3.7112,-3.712,-3.715,-3.7153,-3.7189,-3.7188,-3.7183,-3.7183,-3.7203,-3.72,-3.727,-3.7279,-3.7224,-3.7224,-3.7225,0,-3.6918,-3.6941,-3.6967,-3.6983,-3.6996,-3.7021,-3.7038,-3.7045,-3.7062,-3.7086,-3.7103,-3.7128,-3.7149,-3.719,-3.72,-3.7223,-3.7222,-3.7244,-3.7225,-3.7223,-3.7221,-3.7219,-3.7221,-3.7248,-3.7248,-3.7249,-3.7249,0,-3.6968,-3.6973,-3.6998,-3.7024,-3.7044,-3.7064,-3.7084,-3.7097,-3.7107,-3.7125,-3.7152,-3.7168,-3.72,-3.7225,-3.7248,-3.7258,-3.7255,-3.7255,-3.7261,-3.726,-3.7256,-3.7257,-3.7192,-3.7253,-3.7253,-3.7253,-3.7252,-3.7252,-3.7003,-3.7024,-3.7046,-3.7073,-3.7089,-3.7107,-3.7127,-3.7139,-3.7162,-3.7189,-3.7192,-3.7221,-3.7239,-3.727,-3.7282,-3.7303,-3.7296,-3.7305,-3.7307,-3.7309,-3.731,-3.7254,-3.7307,-3.7307,-3.7307,-3.7307,-3.7307,0,-3.7053,-3.7067,-3.7092,-3.7121,-3.7142,-3.7139,-3.7161,-3.7178,-3.7203,-3.7222,-3.7242,-3.7273,-3.7297,-3.731,-3.7334,-3.7348,-3.7347,-3.7354,-3.7352,-3.7355,-3.7315,-3.7307,-3.7354,-3.7354,-3.7354,-3.7354,-3.7354,-3.7354,-3.7082,-3.7116,-3.7124,-3.7166,-3.7179,-3.7209,-3.7221,-3.7238,-3.7252,-3.7287,-3.7308,-3.7317,-3.7332,-3.7357,-3.7379,-3.7382,-3.739,-3.7397,-3.74,-3.7362,-3.7357,-3.7353,-3.7345,-3.74,-3.74,-3.7437,-3.7437,-3.7438]}]]